Flag Weather past 2 weeks in Black Mountain, North Carolina, U.S.A.

Now
42 °F

Light rain. Overcast.


Feels Like: 39 °F
Forecast: 34 / 47 °F
Wind: 5 mph from North

Location: Asheville Regional Airport

Current Time: Nov 26, 2014 at 3:18:22 AM

Latest Report: Nov 26, 2014 at 2:54 AM


Visibility: 8 mi

Pressure: 29.96 "Hg

Humidity: 92%

Dew point: 40 °F

Location of Black MountainLocation

Historic Weather in Black Mountain — Graph

°F

Black Mountain temperature yesterday

Maximum temperature yesterday: 55 °F (at 2:54 PM)
Minimum temperature yesterday: 44 °F (at 6:54 AM)
Average temperature yesterday: 48 °F

Past Weeks' High & Low Weather Summary

 TemperatureHumidityPressure
High71 °F (Nov 11, 2:54 PM)100% (Nov 11, 9:00 AM)30.55 "Hg (Nov 11, 9:00 AM)
Low17 °F (Nov 18, 6:54 AM)17% (Nov 21, 2:54 PM)29.66 "Hg (Nov 17, 11:54 AM)
Average40 °F62%30.11 "Hg
* Reported Nov 11 1:54 AM — Nov 26 1:54 AM, Black Mountain, Weather by CustomWeather, © 2014

Note: Actual official high and low records may vary slightly from our data, if they occured in-between our weather recording intervals... More about our weather records

Advertising

Black Mountain weather history for previous 24 hours

 ConditionsComfort  
Time TempWeatherWind HumidityBarometerVisibility
1:54 AM
Nov 26
42 °FLight rain. Overcast.5 mph89%29.99 "Hg8 mi
12:54 AM43 °FLight rain. Overcast.3 mph89%30.01 "Hg9 mi
11:54 PM
Nov 25
46 °FLight rain. Mostly cloudy.5 mph66%30.04 "Hg10 mi
10:54 PM46 °FMostly cloudy.No wind56%30.05 "Hg10 mi
9:54 PM48 °FOvercast.No wind43%30.05 "Hg10 mi
8:54 PM48 °FClear.8 mph43%30.05 "Hg10 mi
7:54 PM48 °FClear.6 mph44%30.06 "Hg10 mi
6:54 PM50 °FClear.5 mph38%30.05 "Hg10 mi
5:54 PM51 °FClear.No wind32%30.04 "Hg10 mi
4:54 PM52 °FSunny.8 mph28%30.00 "Hg10 mi
3:54 PM55 °FSunny.7 mph23%29.99 "Hg10 mi
2:54 PM55 °FSunny.10 mph29%29.99 "Hg10 mi
1:54 PM54 °FSunny.15 mph31%30.01 "Hg10 mi
12:54 PM51 °FSunny.15 mph36%30.05 "Hg10 mi
11:54 AM47 °FSunny.14 mph42%30.09 "Hg10 mi
10:54 AM46 °FSunny.17 mph48%30.10 "Hg10 mi
9:54 AM45 °FScattered clouds.16 mph51%30.10 "Hg10 mi
8:54 AM44 °FSunny.20 mph55%30.08 "Hg10 mi
7:54 AM44 °FScattered clouds.14 mph60%30.07 "Hg10 mi
6:54 AM44 °FClear.18 mph60%30.04 "Hg10 mi
5:54 AM45 °FClear.16 mph58%29.99 "Hg10 mi
4:54 AM47 °FClear.17 mph56%29.96 "Hg10 mi
3:54 AM48 °FClear.20 mph59%29.96 "Hg10 mi
Weather by CustomWeather, © 2014

See weather overviewHow to use our weather pages